Weather History for Fort Indiantown Gap, PA

Change the Weather History Date:

Thursday, March 28, 2013

  Actual Average Record
Temperature  
Mean Temperature 42 °F -  
Max Temperature 48 °F 53 °F 73 °F (1997)
Min Temperature 37 °F 36 °F 24 °F (2011)
Degree Days  
Heating Degree Days 23    
Moisture  
Dew Point 25 °F    
Average Humidity 52    
Maximum Humidity 70    
Minimum Humidity 37    
Precipitation  
Precipitation 0.00 in - - ()
Sea Level Pressure  
Sea Level Pressure 30.10 in    
Wind  
Wind Speed 9 mph (WNW)    
Max Wind Speed 12 mph    
Max Gust Speed 21 mph    
Visibility 10 miles    
Events      
Averages and records for this station are not official NWS values.
T = Trace of Precipitation, MM = Missing Value Source: NWS Daily Summary

Daily Weather History Graph

Daily Weather History Graph

Search for Another Location

Airport:

Trip Planner

Search our weather history database for the weather conditions in past years. The results will help you decide how hot, cold, wet, or windy it might be!

Date:

Astronomy

Mar. 28, 2013 Rise Set
Actual Time 6:56 AM EDT 7:26 PM EDT
Civil Twilight 6:28 AM EDT 7:54 PM EDT
Nautical Twilight 5:56 AM EDT 8:26 PM EDT
Astronomical Twilight 5:23 AM EDT 8:59 PM EDT
Moon 9:16 PM EDT (3/28) 7:22 AM EDT (3/28)
Length of Visible Light 13h 25m
Length of Day
12h 30m
Full, 98% of the Moon is Illuminated
Mar 28
Full
Apr 3
Last Quarter
Apr 10
New
Apr 18
First Quarter
Apr 25
Full

Hourly Weather History & Observations

Time (EDT) Temp. Windchill Dew Point Humidity Pressure Visibility Wind Dir Wind Speed Gust Speed Precip Events Conditions
12:55 AM 39.2 °F 35.0 °F 25.3 °F 58% 30.06 in 10.0 mi Variable 5.8 mph - N/A   Clear
1:55 AM 39.4 °F 32.3 °F 25.9 °F 58% 30.06 in 10.0 mi West 11.5 mph - N/A   Overcast
2:55 AM 38.7 °F 31.4 °F 26.2 °F 61% 30.05 in 10.0 mi West 11.5 mph - N/A   Partly Cloudy
3:55 AM 37.9 °F 30.9 °F 27.0 °F 65% 30.04 in 10.0 mi West 10.4 mph - N/A   Clear
4:55 AM 37.8 °F 31.3 °F 28.2 °F 68% 30.04 in 10.0 mi West 9.2 mph - N/A   Clear
5:55 AM 38.3 °F 31.4 °F 28.0 °F 67% 30.04 in 10.0 mi West 10.4 mph - N/A   Overcast
6:55 AM 38.3 °F 30.9 °F 28.0 °F 67% 30.05 in 10.0 mi West 11.5 mph - N/A   Overcast
7:55 AM 38.5 °F 31.6 °F 29.3 °F 70% 30.07 in 10.0 mi West 10.4 mph - N/A   Overcast
8:55 AM 39.2 °F 33.0 °F 30.2 °F 70% 30.08 in 10.0 mi West 9.2 mph - N/A   Overcast
9:55 AM 41.0 °F 35.8 °F 28.4 °F 61% 30.09 in 10.0 mi WNW 8.1 mph 18.4 mph N/A   Overcast
10:55 AM 42.4 °F 36.5 °F 27.5 °F 56% 30.10 in 10.0 mi North 10.4 mph 16.1 mph N/A   Overcast
11:36 AM 42.8 °F 38.0 °F 26.6 °F 53% 30.11 in 10.0 mi NW 8.1 mph 18.4 mph N/A   Light Drizzle
11:55 AM 43.9 °F 37.9 °F 25.9 °F 49% 30.11 in 10.0 mi NW 11.5 mph 17.3 mph 0.00 in   Light Drizzle
12:47 PM 44.6 °F 41.4 °F 24.8 °F 46% 30.08 in 10.0 mi NNW 5.8 mph - N/A   Overcast
12:55 PM 44.8 °F 41.0 °F 25.7 °F 47% 30.10 in 10.0 mi NW 6.9 mph - 0.00 in   Overcast
1:55 PM 44.4 °F 39.5 °F 24.3 °F 45% 30.11 in 10.0 mi North 9.2 mph 18.4 mph N/A   Overcast
2:55 PM 46.0 °F 41.0 °F 23.5 °F 41% 30.10 in 10.0 mi NW 10.4 mph 20.7 mph N/A   Overcast
3:55 PM 46.8 °F - 24.1 °F 41% 30.10 in 10.0 mi Variable 5.8 mph - N/A   Overcast
4:55 PM 47.8 °F - 22.5 °F 37% 30.10 in 10.0 mi WNW 8.1 mph - N/A   Overcast
5:55 PM 46.4 °F 43.5 °F 22.5 °F 39% 30.12 in 10.0 mi Variable 5.8 mph - N/A   Overcast
6:55 PM 45.5 °F 44.2 °F 22.3 °F 40% 30.14 in 10.0 mi Variable 3.5 mph - N/A   Overcast
7:55 PM 45.1 °F 41.4 °F 21.9 °F 40% 30.17 in 10.0 mi WNW 6.9 mph - N/A   Overcast
8:55 PM 44.6 °F 40.7 °F 21.9 °F 41% 30.18 in 10.0 mi West 6.9 mph - N/A   Overcast
9:55 PM 44.1 °F 39.5 °F 22.5 °F 42% 30.19 in 10.0 mi WNW 8.1 mph - N/A   Overcast
10:55 PM 43.5 °F 40.1 °F 22.6 °F 44% 30.20 in 10.0 mi Variable 5.8 mph - N/A   Overcast
11:55 PM 43.2 °F 41.5 °F 22.3 °F 44% 30.21 in 10.0 mi Variable 3.5 mph - N/A   Overcast